This demonstration page uses our WeatherBlox Daily Observations layout. Learn more.

Hourly Observations for January 22, 2019

Temp ( °F °C ) Dew Point ( °F °C ) Humidity (%) Winds ( mph kmh ) Pressure ( in mb ) Visibility ( mi km ) Precip ( " mm )
12:15 am 00:15 Cloudy with Mist and Fog 23 -4.8 23 -4.8 100 100 NNE 9 15 29.83 1010 2 3.21868 0 0
12:35 am 00:35 Cloudy with Mist and Fog 23 -5.2 23 -5.2 100 100 NNE 9 15 29.85 1011 2.5 4.02335 0 0
12:55 am 00:55 Cloudy with Mist and Fog 22 -5.3 22 -5.3 100 100 NNE 9 15 29.85 1011 2.5 4.02335 0 0
1:15 am 01:15 Cloudy with Mist and Fog 22 -5.5 22 -5.5 100 100 NNE 12 19 29.85 1011 2.5 4.02335 0 0
1:35 am 01:35 Cloudy with Mist and Fog 22 -5.5 22 -5.5 100 100 N 7 11 29.88 1012 3 4.82802 0 0
1:55 am 01:55 Cloudy with Mist and Fog 22 -5.5 22 -5.5 100 100 N 10 17 29.88 1012 3 4.82802 0 0
2:15 am 02:15 Cloudy with Mist and Fog 22 -5.5 22 -5.5 100 100 N 8 13 29.94 1014 4 6.43736 0 0
2:35 am 02:35 Cloudy with Mist and Fog 22 -5.5 22 -5.5 100 100 N 10 17 29.88 1012 3 4.82802 0 0
2:55 am 02:55 Cloudy with Mist and Fog 22 -5.5 22 -5.5 100 100 N 10 17 29.94 1014 4 6.43736 0 0
3:15 am 03:15 Cloudy 22 -5.5 22 -5.5 100 100 N 10 17 29.94 1014 7 11.26538 0 0
3:35 am 03:35 Cloudy 22 -5.5 22 -5.5 100 100 N 9 15 29.94 1014 10 16.0934 0 0
3:55 am 03:55 Cloudy 22 -5.5 22 -5.5 100 100 N 8 13 29.94 1014 10 16.0934 0 0
4:15 am 04:15 Cloudy 22 -5.5 22 -5.5 100 100 N 8 13 29.94 1014 10 16.0934 0 0
4:35 am 04:35 Cloudy 22 -5.3 22 -5.3 100 100 N 12 19 29.91 1013 10 16.0934 0 0
4:55 am 04:55 Cloudy 23 -5.1 23 -5.1 100 100 N 10 17 29.91 1013 10 16.0934 0 0
5:15 am 05:15 Cloudy 23 -5.1 23 -5.1 100 100 N 10 17 29.94 1014 10 16.0934 0 0
5:35 am 05:35 Cloudy 23 -5.2 23 -5.2 100 100 N 13 20 29.97 1015 10 16.0934 0 0
5:55 am 05:55 Cloudy 23 -5.2 23 -5.2 100 100 N 14 22 29.97 1015 10 16.0934 0 0
6:15 am 06:15 Cloudy 23 -5.2 23 -5.2 100 100 N 14 22 29.97 1015 10 16.0934 0 0
6:35 am 06:35 Cloudy 23 -5.2 23 -5.2 100 100 N 13 20 29.97 1015 10 16.0934 0 0
6:55 am 06:55 Cloudy 21 -6 21 -6 100 100 N 10 17 30 1016 10 16.0934 0 0
7:15 am 07:15 Cloudy 20 -6.7 20 -6.8 99 99 N 14 22 30.03 1017 10 16.0934 0 0
7:35 am 07:35 Cloudy 19 -7.1 19 -7.3 98 98 N 14 22 30.06 1018 10 16.0934 0 0
7:55 am 07:55 Cloudy 18 -7.6 18 -8 97 97 N 15 24 30.09 1019 10 16.0934 0 0
8:15 am 08:15 Cloudy 18 -8 17 -8.5 96 96 N 15 24 30.09 1019 10 16.0934 0 0
8:35 am 08:35 Cloudy 17 -8.2 16 -9 94 94 N 13 20 30.12 1020 10 16.0934 0 0
8:55 am 08:55 Cloudy 17 -8.2 15 -9.2 93 93 N 12 19 30.15 1021 10 16.0934 0 0
9:15 am 09:15 Cloudy 17 -8.2 15 -9.3 92 92 N 12 19 30.15 1021 10 16.0934 0 0
9:35 am 09:35 Cloudy 17 -8.3 15 -9.7 90 90 N 14 22 30.15 1021 10 16.0934 0 0
9:55 am 09:55 Mostly Cloudy 17 -8.3 15 -9.7 90 90 N 10 17 30.15 1021 10 16.0934 0 0
10:15 am 10:15 Mostly Cloudy with Scattered Snow Showers 18 -7.6 16 -9.1 89 89 N 12 19 30.18 1022 7 11.26538 0 0
10:35 am 10:35 Cloudy with Light Snow 19 -7.2 17 -8.6 90 90 NNW 14 22 30.18 1022 7 11.26538 0 0
10:55 am 10:55 Cloudy 18 -7.8 15 -9.6 87 87 N 16 26 30.18 1022 10 16.0934 0 0
11:15 am 11:15 Cloudy with Light Snow 18 -7.7 15 -9.4 88 88 NNW 13 20 30.18 1022 5 8.0467 0 0
11:35 am 11:35 Cloudy 18 -7.7 15 -9.4 88 88 N 14 22 30.18 1022 10 16.0934 0 0
11:55 am 11:55 Cloudy 18 -8 14 -9.8 87 87 N 15 24 30.21 1023 10 16.0934 0 0
12:15 pm 12:15 Cloudy with Light Snow 17 -8.3 14 -10 88 88 N 16 26 30.18 1022 5 8.0467 0 0
12:35 pm 12:35 Cloudy with Light Snow 18 -8 15 -9.6 88 88 N 18 30 30.15 1021 5 8.0467 0 0
12:55 pm 12:55 Cloudy with Light Snow 18 -7.9 15 -9.7 87 87 N 17 28 30.18 1022 5 8.0467 0 0
1:15 pm 13:15 Cloudy with Light Snow 17 -8.6 13 -10.3 88 88 N 14 22 30.18 1022 5 8.0467 0 0
1:35 pm 13:35 Cloudy 17 -8.5 14 -10.2 88 88 N 15 24 30.18 1022 10 16.0934 0 0
1:55 pm 13:55 Cloudy 17 -8.2 14 -10.1 86 86 N 16 26 30.18 1022 7 11.26538 0 0
2:15 pm 14:15 Cloudy with Light Snow 17 -8.3 14 -10.1 87 87 N 14 22 30.18 1022 7 11.26538 0 0
2:35 pm 14:35 Cloudy with Light Snow 18 -8 14 -10 86 86 N 16 26 30.18 1022 3 4.82802 0 0
2:55 pm 14:55 Cloudy with Light Snow 17 -8.2 14 -10 87 87 N 14 22 30.21 1023 3 4.82802 0 0
3:15 pm 15:15 Cloudy with Light Snow 17 -8.1 14 -9.8 88 88 N 13 20 30.21 1023 2 3.21868 0 0
3:35 pm 15:35 Cloudy with Light Snow 18 -8 15 -9.5 89 89 N 15 24 30.21 1023 2 3.21868 0 0
3:55 pm 15:55 Cloudy with Light Snow 18 -7.7 15 -9.4 88 88 N 14 22 30.21 1023 2.5 4.02335 0 0
4:15 pm 16:15 Cloudy with Light Snow 18 -7.7 16 -9 91 91 N 10 17 30.21 1023 3 4.82802 0 0
4:35 pm 16:35 Cloudy with Light Snow 18 -7.6 17 -8.6 93 93 NNW 8 13 30.21 1023 3 4.82802 0 0
4:55 pm 16:55 Cloudy with Light Snow 18 -7.6 17 -8.3 95 95 N 12 19 30.24 1024 0.75 1.207005 0 0
5:15 pm 17:15 Cloudy with Light Snow 18 -7.6 17 -8.2 96 96 N 10 17 30.24 1024 0.75 1.207005 0 0
5:35 pm 17:35 Cloudy with Snow 18 -7.6 17 -8.1 96 96 N 8 13 30.24 1024 1 1.60934 0.01 0.254
5:55 pm 17:55 Cloudy with Light Snow 18 -7.8 17 -8.5 95 95 NNW 14 22 30.24 1024 1.25 2.011675 0.01 0.254
6:15 pm 18:15 Cloudy with Snow 18 -8 17 -8.5 96 96 N 9 15 30.24 1024 0.75 1.207005 0 0
6:35 pm 18:35 Cloudy with Light Snow 18 -8 17 -8.5 96 96 N 8 13 30.24 1024 1.5 2.41401 0.01 0.254
6:55 pm 18:55 Cloudy with Light Snow 18 -8 17 -8.5 96 96 N 8 13 30.24 1024 1.75 2.816345 0.01 0.254
7:15 pm 19:15 Cloudy with Light Snow 18 -7.6 17 -8.5 93 93 NNW 8 13 30.24 1024 5 8.0467 0 0
7:35 pm 19:35 Cloudy with Light Snow 19 -7.3 17 -8.6 91 91 NNW 10 17 30.27 1025 10 16.0934 0 0
7:55 pm 19:55 Cloudy with Light Snow 19 -7 16 -9 86 86 N 10 17 30.27 1025 10 16.0934 0 0
8:15 pm 20:15 Cloudy with Light Snow 19 -7.2 16 -9 87 87 N 13 20 30.27 1025 10 16.0934 0 0
8:35 pm 20:35 Cloudy 19 -7.1 16 -8.8 88 88 N 12 19 30.27 1025 10 16.0934 0 0
8:55 pm 20:55 Cloudy with Light Snow 19 -7 17 -8.6 89 89 N 10 17 30.24 1024 10 16.0934 0 0
9:15 pm 21:15 Cloudy with Light Snow 19 -7 17 -8.6 89 89 N 10 17 30.24 1024 10 16.0934 0 0
9:35 pm 21:35 Cloudy with Light Snow 19 -7 17 -8.5 89 89 N 8 13 30.24 1024 10 16.0934 0 0
9:55 pm 21:55 Cloudy 20 -6.9 17 -8.4 89 89 N 7 11 30.24 1024 10 16.0934 0 0
10:15 pm 22:15 Cloudy with Light Snow 20 -6.9 17 -8.2 91 91 N 5 7 30.24 1024 10 16.0934 0 0
10:35 pm 22:35 Cloudy with Light Snow 20 -6.8 17 -8.1 91 91 N 7 11 30.24 1024 10 16.0934 0 0
10:55 pm 22:55 Cloudy 20 -6.8 17 -8.1 91 91 N 8 13 30.24 1024 10 16.0934 0 0
11:15 pm 23:15 Cloudy 20 -6.7 18 -8 91 91 N 7 11 30.24 1024 10 16.0934 0 0
11:35 pm 23:35 Cloudy 20 -6.5 18 -8 89 89 N 8 13 30.24 1024 10 16.0934 0 0
11:55 pm 23:55 Cloudy 21 -6.2 18 -7.8 89 89 N 9 15 30.24 1024 10 16.0934 0 0

Powered by AerisWeather